Year,Month,Day,Hour,Minute,Value (Times are PST for windgust in km/hr)
2010,07,04,00,00,19.30
2010,07,04,00,01,14.50
2010,07,04,00,02,9.60
2010,07,04,00,03,11.30
2010,07,04,00,04,17.70
2010,07,04,00,05,6.40
2010,07,04,00,06,14.50
2010,07,04,00,07,12.90
2010,07,04,00,08,4.80
2010,07,04,00,09,14.50
2010,07,04,00,10,8.10
2010,07,04,00,11,8.10
2010,07,04,00,12,4.80
2010,07,04,00,13,19.30
2010,07,04,00,14,9.60
2010,07,04,00,15,4.80
2010,07,04,00,16,9.60
2010,07,04,00,17,4.80
2010,07,04,00,18,8.10
2010,07,04,00,19,11.30
2010,07,04,00,20,12.90
2010,07,04,00,21,9.60
2010,07,04,00,22,4.80
2010,07,04,00,23,8.10
2010,07,04,00,24,6.40
2010,07,04,00,25,4.80
2010,07,04,00,26,6.40
2010,07,04,00,27,14.50
2010,07,04,00,28,16.10
2010,07,04,00,29,14.50
2010,07,04,00,30,19.30
2010,07,04,00,31,14.50
2010,07,04,00,32,17.70
2010,07,04,00,33,17.70
2010,07,04,00,34,14.50
2010,07,04,00,35,8.10
2010,07,04,00,36,9.60
2010,07,04,00,37,14.50
2010,07,04,00,38,11.30
2010,07,04,00,39,11.30
2010,07,04,00,40,16.10
2010,07,04,00,41,14.50
2010,07,04,00,42,6.40
2010,07,04,00,43,8.10
2010,07,04,00,44,4.80
2010,07,04,00,45,14.50
2010,07,04,00,46,11.30
2010,07,04,00,47,14.50
2010,07,04,00,48,11.30
2010,07,04,00,49,9.60
2010,07,04,00,50,11.30
2010,07,04,00,51,16.10
2010,07,04,00,52,11.30
2010,07,04,00,53,9.60
2010,07,04,00,54,14.50
2010,07,04,00,55,8.10
2010,07,04,00,56,24.20
2010,07,04,00,57,16.10
2010,07,04,00,58,8.10
2010,07,04,00,59,9.60
2010,07,04,01,00,8.10
2010,07,04,01,01,6.40
2010,07,04,01,02,4.80
2010,07,04,01,03,9.60
2010,07,04,01,04,8.10
2010,07,04,01,05,9.60
2010,07,04,01,06,4.80
2010,07,04,01,07,11.30
2010,07,04,01,08,9.60
2010,07,04,01,09,9.60
2010,07,04,01,10,16.10
2010,07,04,01,11,14.50
2010,07,04,01,12,11.30
2010,07,04,01,13,11.30
2010,07,04,01,14,9.60
2010,07,04,01,15,6.40
2010,07,04,01,16,9.60
2010,07,04,01,17,9.60
2010,07,04,01,18,8.10
2010,07,04,01,19,8.10
2010,07,04,01,20,1.60
2010,07,04,01,21,8.10
2010,07,04,01,22,9.60
2010,07,04,01,23,14.50
2010,07,04,01,24,12.90
2010,07,04,01,25,20.90
2010,07,04,01,26,17.70
2010,07,04,01,27,9.60
2010,07,04,01,28,11.30
2010,07,04,01,29,19.30
2010,07,04,01,30,16.10
2010,07,04,01,31,8.10
2010,07,04,01,32,8.10
2010,07,04,01,33,24.20
2010,07,04,01,34,16.10
2010,07,04,01,35,17.70
2010,07,04,01,36,16.10
2010,07,04,01,37,17.70
2010,07,04,01,38,16.10
2010,07,04,01,39,8.10
2010,07,04,01,40,14.50
2010,07,04,01,41,19.30
2010,07,04,01,42,19.30
2010,07,04,01,43,19.30
2010,07,04,01,44,30.60
2010,07,04,01,45,20.90
2010,07,04,01,46,19.30
2010,07,04,01,47,16.10
2010,07,04,01,48,17.70
2010,07,04,01,49,17.70
2010,07,04,01,50,24.20
2010,07,04,01,51,17.70
2010,07,04,01,52,19.30
2010,07,04,01,53,19.30
2010,07,04,01,54,25.70
2010,07,04,01,55,20.90
2010,07,04,01,56,22.50
2010,07,04,01,57,17.70
2010,07,04,01,58,17.70
2010,07,04,01,59,6.40
2010,07,04,02,00,25.70
2010,07,04,02,01,20.90
2010,07,04,02,02,19.30
2010,07,04,02,03,30.60
2010,07,04,02,04,20.90
2010,07,04,02,05,14.50
2010,07,04,02,06,16.10
2010,07,04,02,07,17.70
2010,07,04,02,08,14.50
2010,07,04,02,09,8.10
2010,07,04,02,10,14.50
2010,07,04,02,11,14.50
2010,07,04,02,12,25.70
2010,07,04,02,13,20.90
2010,07,04,02,14,12.90
2010,07,04,02,15,14.50
2010,07,04,02,16,11.30
2010,07,04,02,17,19.30
2010,07,04,02,18,20.90
2010,07,04,02,19,20.90
2010,07,04,02,20,16.10
2010,07,04,02,21,8.10
2010,07,04,02,22,16.10
2010,07,04,02,23,20.90
2010,07,04,02,24,14.50
2010,07,04,02,25,17.70
2010,07,04,02,26,25.70
2010,07,04,02,27,22.50
2010,07,04,02,28,16.10
2010,07,04,02,29,14.50
2010,07,04,02,30,16.10
2010,07,04,02,31,16.10
2010,07,04,02,32,12.90
2010,07,04,02,33,24.20
2010,07,04,02,34,17.70
2010,07,04,02,35,19.30
2010,07,04,02,36,12.90
2010,07,04,02,37,12.90
2010,07,04,02,38,12.90
2010,07,04,02,39,14.50
2010,07,04,02,40,9.60
2010,07,04,02,41,14.50
2010,07,04,02,42,14.50
2010,07,04,02,43,20.90
2010,07,04,02,44,16.10
2010,07,04,02,45,14.50
2010,07,04,02,46,11.30
2010,07,04,02,47,20.90
2010,07,04,02,48,16.10
2010,07,04,02,49,8.10
2010,07,04,02,50,11.30
2010,07,04,02,51,17.70
2010,07,04,02,52,19.30
2010,07,04,02,53,24.20
2010,07,04,02,54,12.90
2010,07,04,02,55,22.50
2010,07,04,02,56,20.90
2010,07,04,02,57,24.20
2010,07,04,02,58,17.70
2010,07,04,02,59,17.70
2010,07,04,03,00,9.60
2010,07,04,03,01,14.50
2010,07,04,03,02,17.70
2010,07,04,03,03,11.30
2010,07,04,03,04,16.10
2010,07,04,03,05,17.70
2010,07,04,03,06,11.30
2010,07,04,03,07,19.30
2010,07,04,03,08,19.30
2010,07,04,03,09,8.10
2010,07,04,03,10,6.40
2010,07,04,03,11,16.10
2010,07,04,03,12,9.60
2010,07,04,03,13,16.10
2010,07,04,03,14,16.10
2010,07,04,03,15,14.50
2010,07,04,03,16,24.20
2010,07,04,03,17,24.20
2010,07,04,03,18,24.20
2010,07,04,03,19,25.70
2010,07,04,03,20,17.70
2010,07,04,03,21,16.10
2010,07,04,03,22,25.70
2010,07,04,03,23,22.50
2010,07,04,03,24,22.50
2010,07,04,03,25,14.50
2010,07,04,03,26,12.90
2010,07,04,03,27,11.30
2010,07,04,03,28,12.90
2010,07,04,03,29,25.70
2010,07,04,03,30,16.10
2010,07,04,03,31,22.50
2010,07,04,03,32,20.90
2010,07,04,03,33,16.10
2010,07,04,03,34,20.90
2010,07,04,03,35,14.50
2010,07,04,03,36,20.90
2010,07,04,03,37,19.30
2010,07,04,03,38,20.90
2010,07,04,03,39,25.70
2010,07,04,03,40,22.50
2010,07,04,03,41,11.30
2010,07,04,03,42,17.70
2010,07,04,03,43,17.70
2010,07,04,03,44,16.10
2010,07,04,03,45,16.10
2010,07,04,03,46,19.30
2010,07,04,03,47,22.50
2010,07,04,03,48,19.30
2010,07,04,03,49,14.50
2010,07,04,03,50,16.10
2010,07,04,03,51,11.30
2010,07,04,03,52,22.50
2010,07,04,03,53,20.90
2010,07,04,03,54,19.30
2010,07,04,03,55,25.70
2010,07,04,03,56,16.10
2010,07,04,03,57,16.10
2010,07,04,03,58,17.70
2010,07,04,03,59,9.60
2010,07,04,04,00,14.50
2010,07,04,04,01,11.30
2010,07,04,04,02,16.10
2010,07,04,04,03,17.70
2010,07,04,04,04,11.30
2010,07,04,04,05,24.20
2010,07,04,04,06,17.70
2010,07,04,04,07,19.30
2010,07,04,04,08,16.10
2010,07,04,04,09,16.10
2010,07,04,04,10,19.30
2010,07,04,04,11,20.90
2010,07,04,04,12,19.30
2010,07,04,04,13,17.70
2010,07,04,04,14,24.20
2010,07,04,04,15,27.40
2010,07,04,04,16,25.70
2010,07,04,04,17,19.30
2010,07,04,04,18,9.60
2010,07,04,04,19,24.20
2010,07,04,04,20,22.50
2010,07,04,04,21,19.30
2010,07,04,04,22,19.30
2010,07,04,04,23,17.70
2010,07,04,04,24,16.10
2010,07,04,04,25,19.30
2010,07,04,04,26,24.20
2010,07,04,04,27,27.40
2010,07,04,04,28,25.70
2010,07,04,04,29,27.40
2010,07,04,04,30,19.30
2010,07,04,04,31,17.70
2010,07,04,04,32,16.10
2010,07,04,04,33,24.20
2010,07,04,04,34,20.90
2010,07,04,04,35,20.90
2010,07,04,04,36,25.70
2010,07,04,04,37,19.30
2010,07,04,04,38,16.10
2010,07,04,04,39,20.90
2010,07,04,04,40,25.70
2010,07,04,04,41,19.30
2010,07,04,04,42,19.30
2010,07,04,04,43,17.70
2010,07,04,04,44,22.50
2010,07,04,04,45,24.20
2010,07,04,04,46,24.20
2010,07,04,04,47,22.50
2010,07,04,04,48,19.30
2010,07,04,04,49,17.70
2010,07,04,04,50,11.30
2010,07,04,04,51,22.50
2010,07,04,04,52,20.90
2010,07,04,04,53,17.70
2010,07,04,04,54,14.50
2010,07,04,04,55,25.70
2010,07,04,04,56,25.70
2010,07,04,04,57,17.70
2010,07,04,04,58,11.30
2010,07,04,04,59,24.20
2010,07,04,05,00,20.90
2010,07,04,05,01,9.60
2010,07,04,05,02,20.90
2010,07,04,05,03,19.30
2010,07,04,05,04,22.50
2010,07,04,05,05,16.10
2010,07,04,05,06,17.70
2010,07,04,05,07,19.30
2010,07,04,05,08,17.70
2010,07,04,05,09,14.50
2010,07,04,05,10,22.50
2010,07,04,05,11,16.10
2010,07,04,05,12,14.50
2010,07,04,05,13,12.90
2010,07,04,05,14,17.70
2010,07,04,05,15,19.30
2010,07,04,05,16,9.60
2010,07,04,05,17,20.90
2010,07,04,05,18,11.30
2010,07,04,05,19,16.10
2010,07,04,05,20,16.10
2010,07,04,05,21,16.10
2010,07,04,05,22,16.10
2010,07,04,05,23,12.90
2010,07,04,05,24,14.50
2010,07,04,05,25,20.90
2010,07,04,05,26,11.30
2010,07,04,05,27,14.50
2010,07,04,05,28,16.10
2010,07,04,05,29,16.10
2010,07,04,05,30,20.90
2010,07,04,05,31,17.70
2010,07,04,05,32,11.30
2010,07,04,05,33,11.30
2010,07,04,05,34,11.30
2010,07,04,05,35,19.30
2010,07,04,05,36,20.90
2010,07,04,05,37,24.20
2010,07,04,05,38,17.70
2010,07,04,05,39,17.70
2010,07,04,05,40,20.90
2010,07,04,05,41,11.30
2010,07,04,05,42,19.30
2010,07,04,05,43,14.50
2010,07,04,05,44,17.70
2010,07,04,05,45,17.70
2010,07,04,05,46,16.10
2010,07,04,05,47,11.30
2010,07,04,05,48,11.30
2010,07,04,05,49,12.90
2010,07,04,05,50,9.60
2010,07,04,05,51,11.30
2010,07,04,05,52,12.90
2010,07,04,05,53,9.60
2010,07,04,05,54,11.30
2010,07,04,05,55,8.10
2010,07,04,05,56,17.70
2010,07,04,05,57,8.10
2010,07,04,05,58,11.30
2010,07,04,05,59,11.30
2010,07,04,06,00,9.60
2010,07,04,06,01,9.60
2010,07,04,06,02,9.60
2010,07,04,06,03,17.70
2010,07,04,06,04,8.10
2010,07,04,06,05,14.50
2010,07,04,06,06,19.30
2010,07,04,06,07,12.90
2010,07,04,06,08,8.10
2010,07,04,06,09,6.40
2010,07,04,06,10,9.60
2010,07,04,06,11,12.90
2010,07,04,06,12,11.30
2010,07,04,06,13,11.30
2010,07,04,06,14,16.10
2010,07,04,06,15,9.60
2010,07,04,06,16,16.10
2010,07,04,06,17,12.90
2010,07,04,06,18,16.10
2010,07,04,06,19,16.10
2010,07,04,06,20,17.70
2010,07,04,06,21,20.90
2010,07,04,06,22,14.50
2010,07,04,06,23,20.90
2010,07,04,06,24,19.30
2010,07,04,06,25,19.30
2010,07,04,06,26,11.30
2010,07,04,06,27,14.50
2010,07,04,06,28,16.10
2010,07,04,06,29,4.80
2010,07,04,06,30,9.60
2010,07,04,06,31,14.50
2010,07,04,06,32,8.10
2010,07,04,06,33,8.10
2010,07,04,06,34,17.70
2010,07,04,06,35,22.50
2010,07,04,06,36,19.30
2010,07,04,06,37,19.30
2010,07,04,06,38,16.10
2010,07,04,06,39,17.70
2010,07,04,06,40,16.10
2010,07,04,06,41,19.30
2010,07,04,06,42,17.70
2010,07,04,06,43,20.90
2010,07,04,06,44,16.10
2010,07,04,06,45,17.70
2010,07,04,06,46,14.50
2010,07,04,06,47,14.50
2010,07,04,06,48,20.90
2010,07,04,06,49,17.70
2010,07,04,06,50,16.10
2010,07,04,06,51,20.90
2010,07,04,06,52,30.60
2010,07,04,06,53,19.30
2010,07,04,06,54,19.30
2010,07,04,06,55,17.70
2010,07,04,06,56,16.10
2010,07,04,06,57,19.30
2010,07,04,06,58,16.10
2010,07,04,06,59,29.00
2010,07,04,07,00,25.70
2010,07,04,07,01,17.70
2010,07,04,07,02,25.70
2010,07,04,07,03,24.20
2010,07,04,07,04,25.70
2010,07,04,07,05,20.90
2010,07,04,07,06,14.50
2010,07,04,07,07,11.30
2010,07,04,07,08,20.90
2010,07,04,07,09,20.90
2010,07,04,07,10,16.10
2010,07,04,07,11,22.50
2010,07,04,07,12,20.90
2010,07,04,07,13,20.90
2010,07,04,07,14,19.30
2010,07,04,07,15,19.30
2010,07,04,07,16,19.30
2010,07,04,07,17,16.10
2010,07,04,07,18,14.50
2010,07,04,07,19,17.70
2010,07,04,07,20,22.50
2010,07,04,07,21,19.30
2010,07,04,07,22,17.70
2010,07,04,07,23,9.60
2010,07,04,07,24,8.10
2010,07,04,07,25,8.10
2010,07,04,07,26,9.60
2010,07,04,07,27,17.70
2010,07,04,07,28,20.90
2010,07,04,07,29,9.60
2010,07,04,07,30,1.60
2010,07,04,07,31,6.40
2010,07,04,07,32,8.10
2010,07,04,07,33,9.60
2010,07,04,07,34,9.60
2010,07,04,07,35,14.50
2010,07,04,07,36,20.90
2010,07,04,07,37,16.10
2010,07,04,07,38,16.10
2010,07,04,07,39,9.60
2010,07,04,07,40,11.30
2010,07,04,07,41,8.10
2010,07,04,07,42,6.40
2010,07,04,07,44,9.60
2010,07,04,07,45,17.70
2010,07,04,07,46,8.10
2010,07,04,07,47,9.60
2010,07,04,07,48,9.60
2010,07,04,07,49,6.40
2010,07,04,07,50,14.50
2010,07,04,07,51,24.20
2010,07,04,07,52,20.90
2010,07,04,07,53,16.10
2010,07,04,07,54,24.20
2010,07,04,07,55,19.30
2010,07,04,07,56,24.20
2010,07,04,07,57,19.30
2010,07,04,07,58,19.30
2010,07,04,07,59,17.70
2010,07,04,08,00,16.10
2010,07,04,08,01,22.50
2010,07,04,08,02,29.00
2010,07,04,08,03,24.20
2010,07,04,08,04,22.50
2010,07,04,08,05,20.90
2010,07,04,08,06,17.70
2010,07,04,08,07,19.30
2010,07,04,08,08,24.20
2010,07,04,08,09,16.10
2010,07,04,08,10,16.10
2010,07,04,08,11,19.30
2010,07,04,08,12,24.20
2010,07,04,08,13,20.90
2010,07,04,08,14,14.50
2010,07,04,08,15,19.30
2010,07,04,08,16,14.50
2010,07,04,08,17,20.90
2010,07,04,08,18,16.10
2010,07,04,08,19,14.50
2010,07,04,08,20,11.30
2010,07,04,08,21,14.50
2010,07,04,08,22,20.90
2010,07,04,08,23,17.70
2010,07,04,08,24,27.40
2010,07,04,08,25,24.20
2010,07,04,08,26,29.00
2010,07,04,08,27,20.90
2010,07,04,08,28,20.90
2010,07,04,08,29,17.70
2010,07,04,08,30,24.20
2010,07,04,08,31,27.40
2010,07,04,08,32,22.50
2010,07,04,08,33,29.00
2010,07,04,08,34,27.40
2010,07,04,08,35,25.70
2010,07,04,08,36,20.90
2010,07,04,08,37,25.70
2010,07,04,08,38,20.90
2010,07,04,08,39,19.30
2010,07,04,08,40,19.30
2010,07,04,08,41,16.10
2010,07,04,08,42,17.70
2010,07,04,08,43,20.90
2010,07,04,08,44,20.90
2010,07,04,08,45,17.70
2010,07,04,08,46,11.30
2010,07,04,08,47,9.60
2010,07,04,08,48,17.70
2010,07,04,08,49,17.70
2010,07,04,08,50,22.50
2010,07,04,08,51,16.10
2010,07,04,08,52,16.10
2010,07,04,08,53,16.10
2010,07,04,08,54,14.50
2010,07,04,08,55,19.30
2010,07,04,08,56,22.50
2010,07,04,08,57,6.40
2010,07,04,08,58,16.10
2010,07,04,08,59,11.30
2010,07,04,09,00,11.30
2010,07,04,09,01,14.50
2010,07,04,09,02,16.10
2010,07,04,09,03,14.50
2010,07,04,09,04,20.90
2010,07,04,09,05,17.70
2010,07,04,09,06,12.90
2010,07,04,09,07,9.60
2010,07,04,09,08,14.50
2010,07,04,09,09,16.10
2010,07,04,09,10,14.50
2010,07,04,09,11,16.10
2010,07,04,09,12,17.70
2010,07,04,09,13,16.10
2010,07,04,09,14,11.30
2010,07,04,09,15,19.30
2010,07,04,09,16,19.30
2010,07,04,09,17,19.30
2010,07,04,09,18,24.20
2010,07,04,09,19,20.90
2010,07,04,09,20,11.30
2010,07,04,09,21,19.30
2010,07,04,09,22,14.50
2010,07,04,09,23,16.10
2010,07,04,09,24,11.30
2010,07,04,09,25,8.10
2010,07,04,09,26,12.90
2010,07,04,09,27,20.90
2010,07,04,09,28,16.10
2010,07,04,09,29,16.10
2010,07,04,09,30,20.90
2010,07,04,09,31,29.00
2010,07,04,09,32,24.20
2010,07,04,09,33,19.30
2010,07,04,09,34,19.30
2010,07,04,09,35,17.70
2010,07,04,09,36,20.90
2010,07,04,09,37,22.50
2010,07,04,09,38,16.10
2010,07,04,09,39,25.70
2010,07,04,09,40,24.20
2010,07,04,09,41,19.30
2010,07,04,09,42,16.10
2010,07,04,09,43,20.90
2010,07,04,09,44,25.70
2010,07,04,09,45,19.30
2010,07,04,09,46,24.20
2010,07,04,09,47,17.70
2010,07,04,09,48,22.50
2010,07,04,09,49,17.70
2010,07,04,09,50,14.50
2010,07,04,09,51,11.30
2010,07,04,09,52,19.30
2010,07,04,09,53,19.30
2010,07,04,09,54,17.70
2010,07,04,09,55,22.50
2010,07,04,09,56,25.70
2010,07,04,09,57,22.50
2010,07,04,09,58,11.30
2010,07,04,09,59,17.70
2010,07,04,10,00,11.30
2010,07,04,10,01,22.50
2010,07,04,10,02,29.00
2010,07,04,10,03,16.10
2010,07,04,10,04,14.50
2010,07,04,10,05,24.20
2010,07,04,10,06,17.70
2010,07,04,10,07,17.70
2010,07,04,10,08,16.10
2010,07,04,10,09,19.30
2010,07,04,10,10,24.20
2010,07,04,10,11,14.50
2010,07,04,10,12,17.70
2010,07,04,10,13,17.70
2010,07,04,10,14,25.70
2010,07,04,10,15,22.50
2010,07,04,10,16,11.30
2010,07,04,10,17,12.90
2010,07,04,10,18,16.10
2010,07,04,10,19,20.90
2010,07,04,10,20,11.30
2010,07,04,10,21,11.30
2010,07,04,10,22,9.60
2010,07,04,10,23,8.10
2010,07,04,10,24,11.30
2010,07,04,10,25,16.10
2010,07,04,10,26,20.90
2010,07,04,10,27,9.60
2010,07,04,10,28,16.10
2010,07,04,10,29,17.70
2010,07,04,10,30,20.90
2010,07,04,10,31,16.10
2010,07,04,10,32,11.30
2010,07,04,10,33,14.50
2010,07,04,10,34,19.30
2010,07,04,10,35,19.30
2010,07,04,10,36,27.40
2010,07,04,10,37,25.70
2010,07,04,10,38,20.90
2010,07,04,10,39,12.90
2010,07,04,10,40,19.30
2010,07,04,10,41,14.50
2010,07,04,10,42,16.10
2010,07,04,10,43,14.50
2010,07,04,10,44,32.20
2010,07,04,10,45,17.70
2010,07,04,10,46,22.50
2010,07,04,10,47,29.00
2010,07,04,10,48,22.50
2010,07,04,10,49,25.70
2010,07,04,10,50,24.20
2010,07,04,10,51,22.50
2010,07,04,10,52,20.90
2010,07,04,10,53,27.40
2010,07,04,10,54,14.50
2010,07,04,10,55,25.70
2010,07,04,10,56,22.50
2010,07,04,10,57,20.90
2010,07,04,10,58,24.20
2010,07,04,10,59,17.70
2010,07,04,11,00,19.30
2010,07,04,11,01,16.10
2010,07,04,11,02,12.90
2010,07,04,11,03,24.20
2010,07,04,11,04,19.30
2010,07,04,11,05,20.90
2010,07,04,11,06,16.10
2010,07,04,11,07,14.50
2010,07,04,11,08,22.50
2010,07,04,11,09,22.50
2010,07,04,11,10,24.20
2010,07,04,11,11,16.10
2010,07,04,11,12,17.70
2010,07,04,11,13,22.50
2010,07,04,11,14,17.70
2010,07,04,11,15,25.70
2010,07,04,11,16,22.50
2010,07,04,11,17,11.30
2010,07,04,11,18,25.70
2010,07,04,11,19,30.60
2010,07,04,11,20,30.60
2010,07,04,11,21,24.20
2010,07,04,11,22,19.30
2010,07,04,11,23,19.30
2010,07,04,11,24,22.50
2010,07,04,11,25,25.70
2010,07,04,11,26,16.10
2010,07,04,11,27,27.40
2010,07,04,11,28,19.30
2010,07,04,11,29,22.50
2010,07,04,11,30,25.70
2010,07,04,11,31,27.40
2010,07,04,11,32,22.50
2010,07,04,11,33,24.20
2010,07,04,11,34,27.40
2010,07,04,11,35,32.20
2010,07,04,11,36,24.20
2010,07,04,11,37,17.70
2010,07,04,11,38,25.70
2010,07,04,11,39,30.60
2010,07,04,11,40,20.90
2010,07,04,11,41,17.70
2010,07,04,11,42,24.20
2010,07,04,11,43,22.50
2010,07,04,11,44,22.50
2010,07,04,11,45,22.50
2010,07,04,11,46,16.10
2010,07,04,11,47,19.30
2010,07,04,11,48,17.70
2010,07,04,11,49,16.10
2010,07,04,11,50,27.40
2010,07,04,11,51,22.50
2010,07,04,11,52,16.10
2010,07,04,11,53,20.90
2010,07,04,11,54,19.30
2010,07,04,11,55,25.70
2010,07,04,11,56,22.50
2010,07,04,11,57,17.70
2010,07,04,11,58,11.30
2010,07,04,11,59,24.20
2010,07,04,12,00,27.40
2010,07,04,12,01,11.30
2010,07,04,12,02,24.20
2010,07,04,12,03,19.30
2010,07,04,12,04,22.50
2010,07,04,12,05,29.00
2010,07,04,12,06,25.70
2010,07,04,12,07,20.90
2010,07,04,12,08,24.20
2010,07,04,12,09,30.60
2010,07,04,12,10,33.80
2010,07,04,12,11,22.50
2010,07,04,12,12,24.20
2010,07,04,12,13,33.80
2010,07,04,12,14,25.70
2010,07,04,12,15,25.70
2010,07,04,12,16,30.60
2010,07,04,12,17,32.20
2010,07,04,12,18,29.00
2010,07,04,12,19,17.70
2010,07,04,12,20,38.60
2010,07,04,12,21,22.50
2010,07,04,12,22,20.90
2010,07,04,12,23,22.50
2010,07,04,12,24,22.50
2010,07,04,12,25,19.30
2010,07,04,12,26,27.40
2010,07,04,12,27,27.40
2010,07,04,12,28,17.70
2010,07,04,12,29,25.70
2010,07,04,12,30,32.20
2010,07,04,12,31,29.00
2010,07,04,12,32,25.70
2010,07,04,12,33,16.10
2010,07,04,12,34,29.00
2010,07,04,12,35,24.20
2010,07,04,12,36,22.50
2010,07,04,12,37,20.90
2010,07,04,12,38,32.20
2010,07,04,12,39,27.40
2010,07,04,12,40,24.20
2010,07,04,12,41,29.00
2010,07,04,12,42,24.20
2010,07,04,12,43,22.50
2010,07,04,12,44,22.50
2010,07,04,12,45,25.70
2010,07,04,12,46,27.40
2010,07,04,12,47,25.70
2010,07,04,12,48,35.40
2010,07,04,12,49,33.80
2010,07,04,12,50,25.70
2010,07,04,12,51,22.50
2010,07,04,12,52,22.50
2010,07,04,12,53,17.70
2010,07,04,12,54,19.30
2010,07,04,12,55,19.30
2010,07,04,12,56,29.00
2010,07,04,12,57,27.40
2010,07,04,12,58,33.80
2010,07,04,12,59,25.70
2010,07,04,13,00,20.90
2010,07,04,13,01,20.90
2010,07,04,13,02,30.60
2010,07,04,13,03,20.90
2010,07,04,13,04,33.80
2010,07,04,13,05,27.40
2010,07,04,13,06,19.30
2010,07,04,13,07,20.90
2010,07,04,13,08,25.70
2010,07,04,13,09,32.20
2010,07,04,13,10,20.90
2010,07,04,13,11,30.60
2010,07,04,13,12,25.70
2010,07,04,13,13,24.20
2010,07,04,13,14,33.80
2010,07,04,13,15,27.40
2010,07,04,13,16,25.70
2010,07,04,13,17,45.10
2010,07,04,13,18,32.20
2010,07,04,13,19,29.00
2010,07,04,13,20,32.20
2010,07,04,13,21,33.80
2010,07,04,13,22,35.40
2010,07,04,13,23,32.20
2010,07,04,13,24,37.00
2010,07,04,13,25,33.80
2010,07,04,13,26,37.00
2010,07,04,13,27,25.70
2010,07,04,13,28,29.00
2010,07,04,13,29,27.40
2010,07,04,13,30,22.50
2010,07,04,13,31,37.00
2010,07,04,13,32,29.00
2010,07,04,13,33,27.40
2010,07,04,13,34,32.20
2010,07,04,13,35,27.40
2010,07,04,13,36,20.90
2010,07,04,13,37,20.90
2010,07,04,13,38,29.00
2010,07,04,13,39,29.00
2010,07,04,13,40,29.00
2010,07,04,13,41,29.00
2010,07,04,13,42,29.00
2010,07,04,13,43,16.10
2010,07,04,13,44,25.70
2010,07,04,13,45,27.40
2010,07,04,13,46,30.60
2010,07,04,13,47,27.40
2010,07,04,13,48,27.40
2010,07,04,13,49,25.70
2010,07,04,13,50,27.40
2010,07,04,13,51,24.20
2010,07,04,13,52,33.80
2010,07,04,13,53,16.10
2010,07,04,13,54,29.00
2010,07,04,13,55,24.20
2010,07,04,13,56,19.30
2010,07,04,13,57,27.40
2010,07,04,13,58,25.70
2010,07,04,13,59,24.20
2010,07,04,14,00,24.20
2010,07,04,14,01,27.40
2010,07,04,14,02,24.20
2010,07,04,14,03,35.40
2010,07,04,14,04,29.00
2010,07,04,14,05,16.10
2010,07,04,14,06,24.20
2010,07,04,14,07,17.70
2010,07,04,14,08,25.70
2010,07,04,14,09,16.10
2010,07,04,14,10,27.40
2010,07,04,14,11,29.00
2010,07,04,14,12,19.30
2010,07,04,14,13,33.80
2010,07,04,14,14,32.20
2010,07,04,14,15,25.70
2010,07,04,14,16,25.70
2010,07,04,14,17,24.20
2010,07,04,14,18,17.70
2010,07,04,14,19,25.70
2010,07,04,14,20,25.70
2010,07,04,14,21,29.00
2010,07,04,14,22,22.50
2010,07,04,14,23,27.40
2010,07,04,14,24,17.70
2010,07,04,14,25,29.00
2010,07,04,14,26,25.70
2010,07,04,14,27,22.50
2010,07,04,14,28,20.90
2010,07,04,14,29,35.40
2010,07,04,14,30,27.40
2010,07,04,14,31,27.40
2010,07,04,14,32,25.70
2010,07,04,14,33,25.70
2010,07,04,14,34,20.90
2010,07,04,14,35,22.50
2010,07,04,14,36,35.40
2010,07,04,14,37,33.80
2010,07,04,14,38,37.00
2010,07,04,14,39,25.70
2010,07,04,14,40,27.40
2010,07,04,14,41,19.30
2010,07,04,14,42,19.30
2010,07,04,14,43,27.40
2010,07,04,14,44,32.20
2010,07,04,14,45,33.80
2010,07,04,14,46,29.00
2010,07,04,14,47,29.00
2010,07,04,14,48,37.00
2010,07,04,14,49,22.50
2010,07,04,14,50,20.90
2010,07,04,14,51,30.60
2010,07,04,14,52,27.40
2010,07,04,14,53,19.30
2010,07,04,14,54,29.00
2010,07,04,14,55,20.90
2010,07,04,14,56,22.50
2010,07,04,14,57,16.10
2010,07,04,14,58,30.60
2010,07,04,14,59,20.90
2010,07,04,15,00,24.20
2010,07,04,15,01,20.90
2010,07,04,15,02,29.00
2010,07,04,15,03,17.70
2010,07,04,15,04,27.40
2010,07,04,15,05,24.20
2010,07,04,15,06,24.20
2010,07,04,15,07,16.10
2010,07,04,15,08,27.40
2010,07,04,15,09,24.20
2010,07,04,15,10,20.90
2010,07,04,15,11,24.20
2010,07,04,15,12,22.50
2010,07,04,15,13,38.60
2010,07,04,15,14,30.60
2010,07,04,15,15,17.70
2010,07,04,15,16,17.70
2010,07,04,15,17,19.30
2010,07,04,15,18,27.40
2010,07,04,15,19,19.30
2010,07,04,15,20,19.30
2010,07,04,15,21,20.90
2010,07,04,15,22,17.70
2010,07,04,15,23,27.40
2010,07,04,15,24,25.70
2010,07,04,15,25,30.60
2010,07,04,15,26,25.70
2010,07,04,15,27,19.30
2010,07,04,15,28,25.70
2010,07,04,15,29,17.70
2010,07,04,15,30,17.70
2010,07,04,15,31,27.40
2010,07,04,15,32,32.20
2010,07,04,15,33,30.60
2010,07,04,15,34,37.00
2010,07,04,15,35,32.20
2010,07,04,15,36,33.80
2010,07,04,15,37,19.30
2010,07,04,15,38,25.70
2010,07,04,15,39,22.50
2010,07,04,15,40,29.00
2010,07,04,15,41,29.00
2010,07,04,15,42,20.90
2010,07,04,15,43,25.70
2010,07,04,15,44,27.40
2010,07,04,15,45,22.50
2010,07,04,15,46,32.20
2010,07,04,15,47,25.70
2010,07,04,15,48,20.90
2010,07,04,15,49,27.40
2010,07,04,15,50,27.40
2010,07,04,15,51,32.20
2010,07,04,15,52,29.00
2010,07,04,15,53,30.60
2010,07,04,15,54,33.80
2010,07,04,15,55,20.90
2010,07,04,15,56,37.00
2010,07,04,15,57,27.40
2010,07,04,15,58,24.20
2010,07,04,15,59,29.00
2010,07,04,16,00,16.10
2010,07,04,16,01,32.20
2010,07,04,16,02,16.10
2010,07,04,16,03,27.40
2010,07,04,16,04,16.10
2010,07,04,16,05,35.40
2010,07,04,16,06,33.80
2010,07,04,16,07,24.20
2010,07,04,16,08,14.50
2010,07,04,16,09,29.00
2010,07,04,16,10,32.20
2010,07,04,16,11,29.00
2010,07,04,16,12,24.20
2010,07,04,16,13,30.60
2010,07,04,16,14,19.30
2010,07,04,16,15,25.70
2010,07,04,16,16,30.60
2010,07,04,16,17,25.70
2010,07,04,16,18,17.70
2010,07,04,16,19,43.50
2010,07,04,16,20,27.40
2010,07,04,16,21,29.00
2010,07,04,16,22,24.20
2010,07,04,16,23,20.90
2010,07,04,16,24,20.90
2010,07,04,16,25,24.20
2010,07,04,16,26,24.20
2010,07,04,16,27,33.80
2010,07,04,16,28,25.70
2010,07,04,16,29,24.20
2010,07,04,16,30,24.20
2010,07,04,16,31,25.70
2010,07,04,16,32,27.40
2010,07,04,16,33,32.20
2010,07,04,16,34,37.00
2010,07,04,16,35,25.70
2010,07,04,16,36,25.70
2010,07,04,16,37,19.30
2010,07,04,16,38,41.80
2010,07,04,16,39,40.20
2010,07,04,16,40,25.70
2010,07,04,16,41,30.60
2010,07,04,16,42,35.40
2010,07,04,16,43,32.20
2010,07,04,16,44,30.60
2010,07,04,16,45,38.60
2010,07,04,16,46,29.00
2010,07,04,16,47,43.50
2010,07,04,16,48,32.20
2010,07,04,16,49,27.40
2010,07,04,16,50,29.00
2010,07,04,16,51,29.00
2010,07,04,16,52,35.40
2010,07,04,16,53,22.50
2010,07,04,16,54,32.20
2010,07,04,16,55,30.60
2010,07,04,16,56,32.20
2010,07,04,16,57,35.40
2010,07,04,16,58,35.40
2010,07,04,16,59,35.40
2010,07,04,17,00,45.10
2010,07,04,17,01,30.60
2010,07,04,17,02,30.60
2010,07,04,17,03,32.20
2010,07,04,17,04,29.00
2010,07,04,17,05,35.40
2010,07,04,17,06,30.60
2010,07,04,17,07,40.20
2010,07,04,17,08,37.00
2010,07,04,17,09,30.60
2010,07,04,17,10,33.80
2010,07,04,17,11,33.80
2010,07,04,17,12,40.20
2010,07,04,17,13,38.60
2010,07,04,17,14,33.80
2010,07,04,17,15,38.60
2010,07,04,17,16,40.20
2010,07,04,17,17,33.80
2010,07,04,17,18,20.90
2010,07,04,17,19,40.20
2010,07,04,17,20,25.70
2010,07,04,17,21,27.40
2010,07,04,17,22,22.50
2010,07,04,17,23,32.20
2010,07,04,17,24,27.40